Tracking 18980 objects as of 19-Feb-2018
HD Live streaming from Space Station
objects crossing your sky now

FENGYUN 1C DEB

Track FENGYUN 1C DEB now!
10-day predictions


NORAD ID: 36280
Int'l Code: 1999-025DXH
Perigee: 840.5 km
Apogee: 941.6 km
Inclination: 99.0 °
Period: 102.6 minutes
Semi major axis: 7262 km
RCS: 0.0011 m2 (small)
Launch date: May 10, 1999
Source: People's Republic of China (PRC)
Launch site: Taiyaun Space Center, China (TSC)

Note: This is SATELLITE DEBRIS
aabbcc
Your satellite tracking list
Your tracking list is empty




NASA's NSSDC Master Catalog

Two Line Element Set (TLE):
1 36280U 99025DXH 18049.38752642  .00000015  00000-0  36983-4 0  9992
2 36280  99.0246  97.0798 0069616 120.4556 306.8800 14.02859805463530
Source of the keplerian elements: AFSPC